Погода в Котельникове

Россия / Костромская область     58°06′44″N   42°52′59″E
темп.,
°C
ветер,
м/с
пор.,
м/с
влажн.,
%
обл.,
%
осадки,
мм/ч
давл.,
гПа
погр.,
м
22 апреля, чт
чт2200:00+4зюз3795100 0.7 1011545
03:00+3ююз3993100 0.8 1012479
06:00+3ю3993100 0.0 1014483
09:00+4ююз4996100 0.1 1015660
12:00+4ю4995100 0.3 1016664
15:00+6ююз4883100 0.4 1016791
18:00+7ю398292 0.1 1016573
21:00+6ю3118963 0.1 1018289
23 апреля, пт
пт2300:00+5ю389142 0.0 1018173
03:00+4ююв38945 0.0 1018169
06:00+4ююв3109157 0.0 1019269
09:00+10ю511705 0.0 1019597
12:00+14ю69585 0.1 10181072
15:00+15ю685226 0.1 10171521
18:00+13ю51065100 1.1 1016662
21:00+9ююв3128510 3.0 1016343
24 апреля, сб
сб2400:00+7юв3119122 0.1 1015276
03:00+6юв3118998 0.1 1014267
06:00+6юв413855 0.0 1012383
09:00+12юв5117165 0.4 10101180
12:00+14юв6105721 0.8 10091811
15:00+13юв6105999 1.4 10071581
18:00+11вюв6116699 0.3 10051180
21:00+8вюв6128487 0.3 1004802
25 апреля, вс
вс2500:00+7вюв5979100 0.0 1002927
03:00+6в3788100 0.1 1000884
06:00+5юв1496100 1.4 998776
09:00+1з61297100 4.4 999523
12:00+1зюз71596100 5.1 10011068
15:00+2зюз71594100 9.1 10041170
18:00+2зюз61392100 1.4 10051283
21:00+2зюз51285100 1.4 1006989
26 апреля, пн
пн2600:00+2юз41189100 0.0 1007693
03:00+1зюз51390100 0.0 1007645
06:00+1юз51290100 0.0 1008657
09:00+4зюз5118099 0.0 10091091
12:00+6зюз696499 0.1 10101757
15:00+7зюз585971 0.3 10101529
18:00+6зюз376894 0.3 1009539
21:00+2юз22829 0.3 101027